Location: Bennemühlen
(52.5740°N, 9.7135°E)
Time: 16:13:16
(UTC+00:00)

SR - Pass Details

Date: 21 February 2026
Orbit: 572 x 848 km, 66.7° (Epoch: 8 March)

Event Time Altitude Azimuth Distance (km) Brightness Sun altitude
Exits shadow 03:36:39 65° 86° (E) 669 ? -26.1°
Drops below altitude 10° 03:40:45 10° 43° (NE) 2,027 ? -25.5°
Sets 03:43:08 0° 41° (NE) 2,982 ? -25.2°
